User: anonymous   Login
Location: C.E.K. Mees Observatory
(42.7003°N, 77.4088°W)
Time: 20:34:36
(UTC-05:00)
Language:

N. Korean satellite - Orbit

View from above orbital plane
View from above orbital plane
View from above satellite
View from above satellite

Ground track
Ground track

The orbit data is extracted from the following two-line orbital elements,

1 39026U 12072A   18018.43711264  .00001151  00000-0  46081-4 0  9999
2 39026  97.2147  33.9126 0041031 132.7479 227.7225 15.26287565282813
Epoch (UTC): 18 January 2018 10:29:26
Eccentricity: 0.0041031
inclination: 97.2147°
perigee height: 459 km
apogee height: 515 km
right ascension of ascending node: 33.9126°
argument of perigee: 132.7479°
revolutions per day: 15.26287565
mean anomaly at epoch: 227.7225°
orbit number at epoch: 28281

The dashed part of the orbit path shows where the satellite is in the earth's shadow,  

DLR